Regional Weather Roundup
Issued by NWS

Home | Current Version | Previous Version | Text Only | Print | Product List | Glossary Off
Versions: 1 2 3 4 5 6 7 8 9 10 11 12 13 14 15 16 17 18 19 20 21 22 23 24 25 26 27

000
ASUS45 KSLC 241810
RWRUT

UTAH REGIONAL WEATHER ROUNDUP
NATIONAL WEATHER SERVICE SALT LAKE CITY UT
1200 PM MDT SAT JUN 24 2017

UTZ001>011-023>025-241900-

NORTHERN UTAH

CITY           SKY/WX    TMP DP  RH WIND       PRES   REMARKS
BRIGHAM CITY   SUNNY     77  36  22 SW5       30.23S
HILL AFB       SUNNY     77  42  28 E3        30.25S
LOGAN          SUNNY     75  37  25 N5        30.24F
OGDEN          SUNNY     79  38  22 MISG      30.23S
SALT LAKE CITY SUNNY     82  37  20 VRB3      30.21S
TOOELE VALLEY  SUNNY     77  46  33 N5        30.23S
WENDOVER         N/A     80  28  15 E6        30.22S
HEBER CITY     SUNNY     73  34  23 W3        30.29S
WEST JORDAN    SUNNY     79  49  35 CALM      30.24S

$$

UTZ011>015-024>027-241900-

CENTRAL/NORTHEAST UTAH

CITY           SKY/WX    TMP DP  RH WIND       PRES   REMARKS
PROVO AIRPORT  SUNNY     75  41  29 W6        30.24S
MOAB/CANYONLAN SUNNY     88  16   7 N6        30.13F
DELTA          SUNNY     82  23  11 NE7       30.22F
PRICE          SUNNY     84  20   9 VRB7      30.25S
VERNAL         SUNNY     80  31  16 CALM      30.26S

$$

UTZ013>016-019>022-027-241900-

SOUTHERN UTAH

CITY           SKY/WX    TMP DP  RH WIND       PRES   REMARKS
BRYCE CANYON   SUNNY     80  24  12 W5        30.37F
CEDAR CITY     SUNNY     85  23  10 N6        30.23F
MILFORD        SUNNY     87  20   8 N15G21    30.21S
ST GEORGE      CLEAR     95  28   9 NW7       29.99F
HANKSVILLE     SUNNY     90  19   7 CALM      30.15F
BLANDING       SUNNY     86  26  11 S8        30.29S

$$

REGIONAL REPORTS     COLORADO/ARIZONA

CITY           SKY/WX    TMP DP  RH WIND       PRES   REMARKS
CRAIG, CO      SUNNY     73  22  14 VRB6      30.33F
GRAND JUNCTION SUNNY     85  29  13 W7        30.16F
RIFLE, CO      SUNNY     82  27  13 NW5       30.23F
MONTROSE, CO   SUNNY     80  28  15 N6        30.23F
CORTEZ, CO     SUNNY     84  22  10 VRB6      30.22F
COLORADO CITY    N/A     95  28   9 CALM      30.15F
PAGE, AZ       SUNNY     94  20   7 MISG      30.10F
GRAND CANYON   SUNNY     89  18   7 E10       30.28S
KINGMAN, AZ    SUNNY    102  38  11 N7        29.99S HX  96
FLAGSTAFF, AZ  SUNNY     88  19   8 E9        30.29F

$$

REGIONAL REPORTS    NEVADA/IDAHO/WYOMING

CITY           SKY/WX    TMP DP  RH WIND       PRES   REMARKS
LAS VEGAS, NV  MOSUNNY  104  12   3 NE13      29.91S HX  95
ELY, NY        SUNNY     80  26  13 N8        30.31F
ELKO, NV       SUNNY     81  25  12 NE5       30.27F
POCATELLO, ID  SUNNY     73  35  25 VRB6      30.27F
BURLEY, ID     SUNNY     73  38  27 W7        30.24S
FORT BRIDGER,    N/A     67  31  25 S3        30.43S
EVANSTON, WY   SUNNY     69  32  25 VRB3      30.39S
ROCK SPRINGS,  SUNNY     68  29  23 VRB5      30.39F
KEMMERER, WY     N/A     64  30  27 CALM      30.42S

$$




USA.gov is the U.S. government's official web portal to all federal, state and local government web resources and services.